FW9691 Weather Reports


Display with metric or nautical units.
time (UTC)temp
F
wind
direction
speed
MPH
gust
MPH
rain 1hr
in
rain 24hr
in
rain mn
in
humidity
%
barometer
mb
20260507114556 54 78 12.0 19.0 0.00 0.00 0.00 69 1013.8
20260507113127 54 96 15.0 26.0 0.00 0.00 0.00 68 1013.4
20260507111539 54 94 18.0 25.0 0.00 0.00 0.00 68 1013.0
20260507110040 55 98 15.0 22.0 0.00 0.00 0.00 67 1012.9
20260507104536 55 84 17.0 22.0 0.00 0.00 0.00 66 1012.9
20260507103035 55 99 17.0 22.0 0.00 0.00 0.00 66 1012.5
20260507101545 54 80 9.0 13.0 0.00 0.00 0.00 66 1012.6
20260507100053 52 36 7.0 11.0 0.00 0.00 0.00 63 1012.6
20260507094542 52 349 12.0 15.0 0.00 0.00 0.00 61 1012.7
20260507093040 53 10 11.0 19.0 0.00 0.00 0.00 60 1012.5
20260507091541 53 9 13.0 18.0 0.00 0.00 0.00 60 1012.6
20260507090035 53 360 11.0 19.0 0.00 0.00 0.00 60 1012.3
20260507084548 54 350 17.0 23.0 0.00 0.00 0.00 59 1012.3
20260507083032 55 325 13.0 21.0 0.00 0.00 0.00 57 1011.6
20260507081545 56 335 15.0 21.0 0.00 0.00 0.00 55 1011.6
20260507080041 57 315 13.0 21.0 0.00 0.00 0.00 52 1011.6
20260507074536 59 308 12.0 16.0 0.00 0.00 0.00 48 1011.6
20260507073033 62 305 13.0 19.0 0.00 0.00 0.00 41 1011.4
20260507071516 62 132 8.0 12.0 0.00 0.00 0.00 36 1011.7
20260507070016 63 329 18.0 25.0 0.00 0.00 0.00 34 1010.3
20260507064504 62 43 2.0 8.0 0.00 0.00 0.00 37 1009.6
20260507063059 64 34 9.0 11.0 0.00 0.00 0.00 33 1009.3
20260507061503 66 35 9.0 11.0 0.00 0.00 0.00 31 1009.2
20260507060100 68 38 3.0 6.0 0.00 0.00 0.00 26 1009.0
20260507054559 69 38 4.0 5.0 0.00 0.00 0.00 25 1009.1
20260507053057 71 38 5.0 10.0 0.00 0.00 0.00 22 1009.0
20260507051606 71 55 7.0 9.0 0.00 0.00 0.00 22 1009.1
20260507050107 72 56 4.0 6.0 0.00 0.00 0.00 22 1008.9
20260507044556 71 56 3.0 5.0 0.00 0.00 0.00 23 1008.8
20260507043051 70 278 3.0 4.0 0.00 0.00 0.00 25 1008.7
20260507041545 70 278 2.0 3.0 0.00 0.00 0.00 25 1008.5
20260507040047 71 278 0.0 3.0 0.00 0.00 0.00 25 1008.4
20260507034543 71 278 2.0 4.0 0.00 0.00 0.00 24 1008.2
20260507033046 72 278 7.0 9.0 0.00 0.00 0.00 23 1008.0
20260507031546 73 274 8.0 10.0 0.00 0.00 0.00 23 1007.7
20260507030046 74 256 9.0 12.0 0.00 0.00 0.00 22 1007.5
20260507024547 74 254 11.0 13.0 0.00 0.00 0.00 21 1007.2
20260507023044 75 260 11.0 12.0 0.00 0.00 0.00 20 1007.0
20260507021548 75 256 9.0 11.0 0.00 0.00 0.00 20 1006.8
20260507020037 76 258 9.0 12.0 0.00 0.00 0.00 19 1006.6
20260507014536 77 257 9.0 13.0 0.00 0.00 0.00 18 1006.3
20260507013037 79 285 11.0 14.0 0.00 0.00 0.00 17 1005.9
20260507011539 80 272 11.0 21.0 0.00 0.00 0.00 17 1005.7
20260507010042 80 278 13.0 20.0 0.00 0.00 0.00 17 1005.5
20260507004536 81 266 14.0 27.0 0.00 0.00 0.00 16 1005.4
20260507003035 81 248 17.0 24.0 0.00 0.00 0.00 16 1005.4
20260507001546 81 267 18.0 28.0 0.00 0.00 0.00 16 1005.3
20260507000045 81 261 17.0 27.0 0.00 0.00 0.00 16 1005.1
20260506234557 81 260 14.0 27.0 0.00 0.00 0.00 17 1005.0
20260506233044 81 262 15.0 26.0 0.00 0.00 0.00 16 1005.0
20260506231537 81 275 23.0 32.0 0.00 0.00 0.00 16 1004.9
20260506230036 82 242 21.0 28.0 0.00 0.00 0.00 15 1005.0
20260506224536 82 251 22.0 30.0 0.00 0.00 0.00 14 1004.8
20260506223034 81 274 20.0 28.0 0.00 0.00 0.00 16 1004.8
20260506221527 82 264 15.0 30.0 0.00 0.00 0.00 16 1004.8
20260506220034 81 241 20.0 25.0 0.00 0.00 0.00 16 1004.9
20260506214527 81 259 18.0 29.0 0.00 0.00 0.00 17 1005.0
20260506213030 82 246 20.0 29.0 0.00 0.00 0.00 17 1005.2
20260506211541 80 250 18.0 28.0 0.00 0.00 0.00 18 1005.2
20260506210041 80 244 20.0 26.0 0.00 0.00 0.00 18 1005.4
20260506204550 80 248 16.0 25.0 0.00 0.00 0.00 19 1005.8
20260506203039 80 273 18.0 27.0 0.00 0.00 0.00 18 1006.0
20260506201542 79 262 11.0 28.0 0.00 0.00 0.00 20 1006.1
20260506200055 79 222 15.0 22.0 0.00 0.00 0.00 19 1006.1
20260506194544 78 196 12.0 18.0 0.00 0.00 0.00 22 1006.2
20260506193036 77 247 6.0 19.0 0.00 0.00 0.00 25 1006.5
20260506191531 77 289 8.0 13.0 0.00 0.00 0.00 24 1006.8
20260506190029 76 240 7.0 18.0 0.00 0.00 0.00 25 1007.0
20260506184528 76 254 11.0 18.0 0.00 0.00 0.00 25 1007.2
20260506183026 75 220 7.0 11.0 0.00 0.00 0.00 26 1007.4
20260506181537 75 255 9.0 18.0 0.00 0.00 0.00 26 1007.7
20260506180036 75 297 6.0 12.0 0.00 0.00 0.00 26 1007.9
20260506174535 74 311 5.0 15.0 0.00 0.00 0.00 27 1008.1
20260506173033 75 342 8.0 15.0 0.00 0.00 0.00 27 1008.1
20260506171534 74 292 6.0 16.0 0.00 0.00 0.00 26 1008.2
20260506170020 74 322 11.0 14.0 0.00 0.00 0.00 27 1008.2
20260506164520 74 300 12.0 17.0 0.00 0.00 0.00 27 1008.2
20260506163017 73 325 13.0 22.0 0.00 0.00 0.00 29 1008.1
20260506161521 73 314 13.0 21.0 0.00 0.00 0.00 28 1007.9
20260506160021 73 314 16.0 23.0 0.00 0.00 0.00 29 1007.7
20260506154516 72 306 17.0 22.0 0.00 0.00 0.00 30 1007.6
20260506153011 72 329 15.0 19.0 0.00 0.00 0.00 29 1007.6
20260506151506 72 360 11.0 17.0 0.00 0.00 0.00 31 1007.5
20260506150008 71 342 11.0 18.0 0.00 0.00 0.00 32 1007.5
20260506144503 69 33 9.0 14.0 0.00 0.00 0.00 36 1007.4
20260506143010 68 355 10.0 14.0 0.00 0.00 0.00 36 1007.3
20260506141510 67 355 9.0 13.0 0.00 0.00 0.00 37 1007.3
20260506140010 66 355 12.0 15.0 0.00 0.00 0.00 37 1007.4
20260506134505 65 336 9.0 14.0 0.00 0.00 0.00 40 1007.1
20260506133005 64 247 8.0 9.0 0.00 0.00 0.00 42 1007.0
20260506131552 62 244 7.0 9.0 0.00 0.00 0.00 44 1006.7
20260506130057 63 242 5.0 7.0 0.00 0.00 0.00 42 1006.5
20260506124542 63 237 5.0 8.0 0.00 0.00 0.00 40 1006.5
20260506123040 66 236 5.0 8.0 0.00 0.00 0.00 35 1006.2
20260506121532 67 236 6.0 9.0 0.00 0.00 0.00 32 1005.9
20260506120031 65 236 5.0 8.0 0.00 0.00 0.00 36 1006.0